Regional Weather Roundup
Issued by NWS

Home | Current Version | Previous Version | Graphics & Text | Print | Product List | Glossary On
Versions: 1 2 3 4 5 6 7 8 9 10 11 12 13 14 15 16 17 18 19 20 21 22 23 24 25 26 27 28 29 30 31 32 33 34 35 36 37 38 39 40 41 42 43 44 45 46 47 48 49 50
000
ASUS45 KSLC 251310
RWRUT

UTAH REGIONAL WEATHER ROUNDUP
NATIONAL WEATHER SERVICE SALT LAKE CITY UT
600 AM MST SUN JAN 25 2015

UTZ001>011-023>025-251400-

NORTHERN UTAH

CITY           SKY/WX    TMP DP  RH WIND       PRES   REMARKS
BRIGHAM CITY   CLOUDY    34  30  85 CALM      30.46F
HILL AFB       MOCLDY    35  24  66 SE5       30.44F WCI  31
LOGAN          CLOUDY    32  30  92 CALM      30.45F
OGDEN          CLOUDY    33  28  81 CALM      30.44F
PROVO AIRPORT  CLOUDY    34  27  75 CALM      30.46S
SALT LAKE CITY CLOUDY    34  29  82 NW3       30.46R
VERNAL         PTCLDY    19  13  77 CALM      30.38S
WENDOVER       PTCLDY    25  19  80 CALM      30.45F
HEBER CITY     CLOUDY    30  27  86 CALM      30.45S
WEST JORDAN    CLOUDY    36  28  75 NE3       30.46R

$$

UTZ012>022-026-027-251400-

SOUTHERN/CENTRAL UTAH

CITY           SKY/WX    TMP DP  RH WIND       PRES   REMARKS
BLANDING       CLEAR     32  20  62 W7        30.35S WCI  25
BRYCE CANYON   CLEAR     22  20  92 W9        30.38S WCI  12
CEDAR CITY     PTCLDY    25  21  85 E5        30.38S WCI  19
DELTA          PTCLDY    31  26  82 CALM      30.43S
MILFORD        CLEAR     27  21  78 NE7       30.39F WCI  19
MOAB/CYNLANDS  CLEAR     22  18  85 CALM      30.36S
PRICE          CLEAR     24  16  71 E5        30.32S WCI  18
ST GEORGE      SUNNY     39  25  56 E6        30.33R WCI  35
KANAB          CLEAR     32  23  69 NE7       30.36S WCI  26

$$

REGIONAL REPORTS     COLORADO/ARIZONA

CITY           SKY/WX    TMP DP  RH WIND       PRES   REMARKS
CRAIG, CO        N/A    N/A N/A N/A MISG      30.36R
GRAND JUNCTION PTCLDY    23  17  78 SE12      30.37S WCI  12
RIFLE          CLOUDY    22  16  78 CALM      30.40S
MONTROSE       PTCLDY    18  12  77 S6        30.40S WCI  10
CORTEZ         CLEAR     18  14  84 E8        30.28F WCI   8
PAGE, AZ       NOT AVBL
GRAND CANYON   PTCLDY    33  19  56 N3        30.32S
KINGMAN        CLEAR     41  20  43 E7        30.23S
FLAGSTAFF      CLEAR     40  20  44 E12       30.29R WCI  33

$$

REGIONAL REPORTS    NEVADA/IDAHO/WYOMING

CITY           SKY/WX    TMP DP  RH WIND       PRES   REMARKS
LAS VEGAS, NV  CLEAR     47  23  38 S10       30.22S
ELY            CLEAR     20  18  92 S8        30.43S WCI  10
ELKO           CLEAR     26  22  84 N3        30.44S
POCATELLO, ID  CLOUDY    30  30 100 NE7       30.44S WCI  23
BURLEY         PTCLDY    28  27  96 CALM      30.41S FOG
EVANSTON, WY   MOCLDY    28  26  92 SW9       30.43R WCI  19
ROCK SPRINGS   CLEAR     30  26  85 W22       30.31F WCI  17
KEMMERER       CLOUDY    30  30 100 W21       30.36F WCI  17

$$



USA.gov is the U.S. government's official web portal to all federal, state and local government web resources and services.